User: anonymous   Login
Location: Unspecified
(0.0000°N, 0.0000°E)
Time: 00:37:07
(UTC+00:00)
Language:

PAYLOAD G - Orbit

View from above orbital plane
View from above orbital plane
View from above satellite
View from above satellite

Ground track
Ground track

The orbit data is extracted from the following two-line orbital elements,

1 27846U 03031G   17206.59198589 +.00000017 +00000-0 +27577-4 0  9994
2 27846 098.6824 213.8133 0008637 203.3891 156.6895 14.22115680729779
Epoch (UTC): 25 July 2017 14:12:27
Eccentricity: 0.0008637
inclination: 98.6824°
perigee height: 812 km
apogee height: 824 km
right ascension of ascending node: 213.8133°
argument of perigee: 203.3891°
revolutions per day: 14.22115680
mean anomaly at epoch: 156.6895°
orbit number at epoch: 72977

The dashed part of the orbit path shows where the satellite is in the earth's shadow,  

DLR